Regional Weather Roundup
Issued by NWS Boston, MA

Home | Current Version | Previous Version | Text Only | Print | Product List | Glossary On
Versions: 1 2 3 4 5 6 7 8 9 10 11 12 13 14 15 16 17 18 19 20 21 22 23 24 25 26 27 28 29 30 31 32 33 34 35 36 37 38 39 40 41 42 43 44 45 46 47 48 49 50
000
ASUS41 KBOX 240410
RWRBOX

REGIONAL WEATHER ROUNDUP
NATIONAL WEATHER SERVICE TAUNTON MA
1100 PM EST SUN NOV 23 2014

NOTE:  "FAIR" INDICATES FEW OR NO CLOUDS BELOW 12,000 FEET WITH NO
SIGNIFICANT WEATHER AND/OR OBSTRUCTIONS TO VISIBILITY.  THE FOLLOWING
OBSERVATION LOCATIONS DO NOT REPORT PRESENT WEATHER...PROVINCETOWN...
SMITHFIELD...BLOCK ISLAND...KEENE...AND OXFORD.

MAZALL-240500-
EASTERN MASSACHUSETTS

CITY           SKY/WX    TMP DP  RH WIND       PRES   REMARKS
BOSTON         PTCLDY    44  37  76 SW6       30.12F
BEVERLY        PTCLDY    44  33  65 S3        30.11F
LAWRENCE       PTCLDY    47  32  56 S5        30.12S
BEDFORD        PTCLDY    41  31  67 CALM      30.10S
BLUE HILL        N/A     43  36  76 S18       30.09F
NORWOOD        CLEAR     36  34  92 S6        30.12S WCI  31
MARSHFIELD     CLEAR    N/A N/A N/A SW5       30.14S
PLYMOUTH       CLEAR     43  40  89 S3        30.14S
TAUNTON        CLEAR     34  32  92 CALM      30.13S
NEW BEDFORD    CLEAR     42  41  96 CALM      30.13S
$$

MAZALL-240500-
CAPE COD AND THE ISLANDS

CITY           SKY/WX    TMP DP  RH WIND       PRES   REMARKS
FALMOUTH       CLEAR     45  45 100 CALM      30.15S FOG
HYANNIS        CLEAR     49  46  90 CALM      30.14S
CHATHAM        CLOUDY    47  46  97 SW5       30.17R FOG
PROVINCETOWN   CLEAR     46  45  93 S8        30.15R
NANTUCKET      CLEAR     50  48  93 S5        30.16F FOG
MARTHAS VNYRD  FOG       39  39 100 S3        30.15S VSB 1/2
$$

MAZALL-240500-
CENTRAL AND WESTERN MASSACHUSETTS

CITY           SKY/WX    TMP DP  RH WIND       PRES   REMARKS
WORCESTER      CLEAR     40  29  64 SW9       30.08F
FITCHBURG      CLEAR     35  31  85 CALM      30.10S
ORANGE         PTCLDY    31  29  92 CALM      30.08F
SPRINGFIELD    CLEAR     41  31  67 E1        30.07F
WESTFIELD      MOCLDY    41  29  62 CALM      30.08F
NORTH ADAMS    MOCLDY    41  34  76 SE6       30.02F
PITTSFIELD     CLOUDY    35  33  92 CALM      30.02F
$$

RIZALL-240500-
RHODE ISLAND

CITY           SKY/WX    TMP DP  RH WIND       PRES   REMARKS
PROVIDENCE     CLEAR     41  37  86 CALM      30.13F
NEWPORT        CLEAR     46  42  86 SE5       30.12F
BLOCK ISLAND   MOCLDY    52  48  87 S6        30.12F
SMITHFIELD     CLEAR     43  30  61 S5        30.10F
WESTERLY       MOCLDY    38  35  89 CALM      30.12F
$$

CTZALL-240500-
CONNECTICUT

CITY           SKY/WX    TMP DP  RH WIND       PRES   REMARKS
BRADLEY INTL   CLOUDY    44  33  65 S3        30.07F
HARTFORD       MOCLDY    40  33  76 CALM      30.08F
BRIDGEPORT     CLOUDY    45  39  79 NE6       30.07F
DANBURY        CLOUDY    40  29  64 CALM      30.06F
GROTON         CLOUDY    38  36  92 N5        30.10F FOG
NEW HAVEN      CLOUDY    44  36  73 N3        30.08F
CHESTER        FAIR      43  39  87 CALM      30.10F
MERIDEN        CLOUDY    38  33  82 CALM      30.08F
WILLIMANTIC    MOCLDY    37  29  72 CALM      30.11F
OXFORD         CLOUDY    45  36  70 SE6       30.08F
$$

MEZ002-015-021-024-NHZ003-005-008-011-012-014-VTZ005-008-240500-
NORTHERN NEW ENGLAND

CITY           SKY/WX    TMP DP  RH WIND       PRES   REMARKS
PORTLAND ME    CLOUDY    46  42  86 CALM      30.11S
BANGOR ME      MOCLDY    39  35  86 S3        30.14S
CONCORD NH     MOCLDY    40  36  86 CALM      30.09F
MANCHESTER NH  PTCLDY    47  35  63 S3        30.08S
NASHUA NH      PTCLDY    41  35  79 CALM      30.10S
PORTSMOUTH NH  PTCLDY    46  37  73 SE3       30.09F
JAFFREY NH     CLEAR     31  29  92 CALM      30.08F
KEENE NH       CLEAR     34  30  86 CALM      30.08F
BURLINGTON VT  CLOUDY    49  38  65 S5        29.96F
MT. WASHINGTON FOG       32  32 100 SW28G39     N/A  VSB 1/16WCI  18
$$

NYZ052-076-240500-
EASTERN NEW YORK

CITY           SKY/WX    TMP DP  RH WIND       PRES   REMARKS
ALBANY         CLOUDY    50  27  40 S9        30.00F
NEW YORK CITY  CLOUDY    51  48  89 E6        30.03F
$$

ANZALL-240500-
MARINE OBSERVATIONS

STATION/POSITION TIME  TEMP    WIND        PRES    VSBY  WAVE
                       AIR SEA DIR/SP/G                  HT/PER
                 (UTC) (F)     (DEG/KT/KT) (MB)    (MI)  (FT/S)
BOSTON BUOY      0350   48 50  210/ 10/ 12 1020.2F         1/ 3
BUZZARDS BAY     0300          210/  6/  6 1021.4F
NANTUCKET SOUND  0350   50 48  160/  6/  8 1021.1F         1/ 4
MASS BAY-STELLWA 0304   49 50  180/ 10/ 10   N/A    1 7/8  2/ 3
ISLE OF SHOALS   0400   50     200/ 11/ 12 1018.8F
S OF BLOCK IS    0308      56                N/A           5/ 7
$$

......................KEY.........................
  SKY/WX - SKY CONDITION/PRESENT WEATHER
  TMP    - TEMPERATURE IN FAHRENHEIT
  DWPT   - DEWPOINT IN FAHRENHEIT
  RH     - RELATIVE HUMIDITY IN PERCENT
  WIND   - DIRECTION AND SPEED IN MPH
  PRES   - MEAN SEA LEVEL PRESSURE IN INCHES OF HG
  WCI    - WIND CHILL INDEX
  VSB    - VISIBILITY IN MILES
  HX     - HEAT INDEX
  TC     - TEMPERATURE IN CELSIUS
  VRB    - VARIABLE WIND DIRECTION
  N/A    - NOT AVAILABLE


USA.gov is the U.S. government's official web portal to all federal, state and local government web resources and services.